Regional Weather Roundup
Issued by NWS

Home | Current Version | Previous Version | Graphics & Text | Print | Product List | Glossary On
Versions: 1 2 3 4 5 6 7 8 9 10 11 12 13 14 15 16 17 18 19 20 21 22 23 24 25 26 27 28 29 30 31 32 33 34 35 36 37 38 39 40 41 42 43 44 45 46 47 48 49 50
000
ASUS43 KMPX 251801
RWRMN
WEATHER ROUNDUP FOR MINNESOTA
NATIONAL WEATHER SERVICE TWIN CITIES/CHANHASSEN MN
100 PM CDT THU AUG 25 2016


NOTE: "FAIR" INDICATES FEW OR NO CLOUDS BELOW 12,000 FEET WITH NO
SIGNIFICANT WEATHER AND/OR OBSTRUCTIONS TO VISIBILITY. N/A MEANS
CURRENT SKY AND/OR WEATHER CONDITIONS ARE NOT AVAILABLE.

MNZ060>063-068>070-251900-
   Twin Cities Metro

CITY           SKY/WX    TMP DP  RH WIND       PRES   REMARKS
TWIN CITIES    CLOUDY    71  53  52 W15       30.06R
6HR MIN TEMP:  62; 6HR MAX TEMP:  72;

ST PAUL        CLOUDY    71  55  56 SW13      30.06R
CRYSTAL        CLOUDY    71  53  52 W14       30.05R
BLAINE         PTSUNNY   72  55  56 W16G22    30.05S
LAKEVILLE      PTSUNNY   68  55  64 W12       30.08R
EDEN PRAIRIE   CLOUDY    71  55  56 W13       30.06S
6HR MIN TEMP:  60; 6HR MAX TEMP:  73;

LAKEVILLE      PTSUNNY   68  55  64 W12       30.08R
SOUTH ST PAUL  CLOUDY    72  52  49 W12G20    30.06R
LAKE ELMO      FAIR      72  55  56 W12       30.07R
$$
MNZ001>005-007-008-013>017-022>024-027-028-251900-
   Northwest Minnesota

CITY           SKY/WX    TMP DP  RH WIND       PRES   REMARKS
BEMIDJI        CLOUDY    63  56  78 W17       29.99R
HALLOCK        MOSUNNY   64  54  68 N15       30.00R
ROSEAU         MOSUNNY   61  54  77 NW10      29.96R
WARROAD        PTSUNNY   61  55  82 NW18      29.95R
THIEF RVR FALL CLOUDY    59  54  83 NW14G23   30.02R
CROOKSTON      PTSUNNY   63  54  72 N16       30.03R
FOSSTON        CLOUDY    61  54  77 W13G18    30.02R
DETROIT LAKES  CLOUDY    63  54  72 W10       30.05S
MOORHEAD       PTSUNNY   63  54  72 NW15G23   30.06R
PARK RAPIDS    CLOUDY    64  56  75 W15       30.02R
MAHNOMEN       CLOUDY    62  54  75 NW20      30.02S
$$
MNZ006-009>011-018-025>026-251900-
   North Central Minnesota

CITY           SKY/WX    TMP DP  RH WIND       PRES   REMARKS
BAUDETTE       PTSUNNY   68  58  70 W15G23    29.90R
FLAG ISLAND    CLOUDY    61  55  82 NW10      29.91R
INTL FALLS       N/A     66  57  72 W10       29.90R
6HR MIN TEMP:  52; 6HR MAX TEMP:  66; 6HR PCP: TRACE;

WASKISH        PTSUNNY   63  59  88 W18       29.94R
BIG FORK       PTSUNNY   64  55  72 SW8G18    29.94S
LONGVILLE      CLOUDY    63  54  72 W8        30.00S
GRAND RAPIDS   CLOUDY    63  53  70 W10G21    30.00R
CRANE LAKE     CLOUDY    59  57  94 W6        29.93R
ORR            PTSUNNY   64  54  68 SW6       29.90S
COOK           CLOUDY    63  54  72 SW8       29.94S
WALKER         CLOUDY    62  53  73 W15G22    29.99S
$$
MNZ012-019>021-037-251900-
   Northeast Minnesota

CITY           SKY/WX    TMP DP  RH WIND       PRES   REMARKS
DULUTH         PTSUNNY   70  54  56 W20G26    29.96R
6HR MIN TEMP:  57; 6HR MAX TEMP:  72;

ELY            CLOUDY    64  52  63 W13G22    29.92S
HIBBING        CLOUDY    61  53  75 VRB6      29.96R
EVELETH        MOSUNNY   63  51  64 W12       29.96S
DULUTH HARBOR  MOSUNNY   72  57  60 W21       29.94S
TWO HARBORS    MOSUNNY   73  57  56 W15G22    29.92R
SILVER BAY     PTSUNNY   72  55  56 W5        29.90S
G MARAIS ARPRT PTSUNNY   66  48  52 SW5       29.90F
$$
MNZ029>031-032-039>041-046>048-054>057-064-251900-
   West Central Minnesota

CITY           SKY/WX    TMP DP  RH WIND       PRES   REMARKS
FERGUS FALLS   CLOUDY    63  54  72 W12G18    30.09R
WHEATON        PTSUNNY   70  55  60 W14       30.10R
MORRIS         CLOUDY    66  54  63 W12G17    30.09S
ALEXANDRIA     CLOUDY    62  52  69 W15       30.09R
ELBOW LAKE     CLOUDY    63  53  72 NW12      30.09R
WADENA         CLOUDY    61  54  77 W15G21    30.05R
GLENWOOD       CLOUDY    63  54  72 W14G20    30.09S
APPLETON       MOSUNNY   66  52  59 W14G20    30.10S
BENSON         PTSUNNY   66  52  59 NW12G18   30.10S
ORTONVILLE     CLOUDY    64  52  63 NW10      30.11R
MADISON        MOSUNNY   68  54  60 W14G20    30.11S
WILLMAR        FAIR      66  55  68 NW13      30.11R
$$
MNZ033>034-036-042>043-049>051-058-059-251900-
   Central Minnesota

CITY           SKY/WX    TMP DP  RH WIND       PRES   REMARKS
ST CLOUD       MOSUNNY   68  53  58 W15G24    30.06S
6HR MIN TEMP:  56; 6HR MAX TEMP:  68;

SAUK CENTRE    CLOUDY    62  52  70 W13G22    30.09S
PAYNESVILLE    CLOUDY    64  52  65 W12       30.09S
AITKIN         CLOUDY    64  50  59 W7        30.02R
PINE RIVER     CLOUDY    61  54  77 W5        30.06R
BRAINERD       CLOUDY    62  52  69 W14       30.05R
STAPLES        CLOUDY    63  52  67 W13G21    30.05S
LONG PRAIRIE   CLOUDY    61  52  72 SW12G17   30.08R
LITTLE FALLS   CLOUDY    63  50  63 W12G18    30.06S
LITCHFIELD     CLOUDY    68  55  64 W10       30.09S
BUFFALO        PTSUNNY   68  54  60 SW9G16    30.07F
MAPLE LAKE     PTSUNNY   70  57  64 W10G17    30.07F
HUTCHINSON     SUNNY     68  58  68 W14G21    30.10S
$$
MNZ037-044-045-052-053-251900-
   East Central Minnesota

CITY           SKY/WX    TMP DP  RH WIND       PRES   REMARKS
PRINCETON      CLOUDY    70  55  60 W14G21    30.05S
MORA           PTSUNNY   64  52  63 W13G20    30.05S
CAMBRIDGE      MOSUNNY   70  55  60 W12G20    30.02S
RUSH CITY      PTSUNNY   70  56  61 W10G18    30.03S
MOOSE LAKE     PTSUNNY   64  52  63 SW12G17   29.99R
HINCKLEY       MOCLDY    70  55  60 W16       30.02R
CLOQUET        CLOUDY    66  50  55 W14G21    29.98S
MCGREGOR       CLOUDY    63  52  67 SW9G18    30.02R
$$
MNZ071>073-080-081-089-090-097-098-251900-
   Southwest Minnesota

CITY           SKY/WX    TMP DP  RH WIND       PRES   REMARKS
MONTEVIDEO     PTSUNNY   70  55  60 NW12G18   30.12S
GRANITE FALLS  CLOUDY    69  58  67 W10G17    30.12F
CANBY          MOSUNNY   69  55  61 NW14      30.13F
MARSHALL       PTSUNNY   68  55  63 W14       30.12F
REDWOOD FALLS  PTSUNNY   67  54  63 W10       30.11S
OLIVIA         MOSUNNY   70  55  60 W13G18    30.09S
PIPESTONE      MOSUNNY   66  54  63 NW14      30.15S
WINDOM         CLOUDY    70  55  60 W7        30.13F
WORTHINGTON    CLOUDY    66  54  65 W8        30.15F
JACKSON        CLOUDY    70  50  49 W8        30.14F
TRACY          MOSUNNY   70  57  63 W6        30.13S
$$
MNZ065>067-074>077-082>085-091>093-251900-
   South Central Minnesota

CITY           SKY/WX    TMP DP  RH WIND       PRES   REMARKS
MANKATO        CLOUDY    70  52  52 W12       30.10F
NEW ULM          N/A     66  55  68 W12       30.11S
ST JAMES       CLOUDY    63  52  67 W8        30.13S
FAIRMONT       PTSUNNY   69  55  60 NW10      30.12F
GLENCOE        CLOUDY    67  59  74 W9        30.09S
FARIBAULT      PTSUNNY   72  59  64 W12       30.09S
OWATONNA       MOSUNNY   72  57  60 W8        30.09F
WASECA         CLOUDY    70  59  68 W9        30.11S
ALBERT LEA     CLOUDY    72  57  60 CALM      30.11F
$$
MNZ078>079-086>088-094>096-251900-
   Southeast Minnesota

CITY           SKY/WX    TMP DP  RH WIND       PRES   REMARKS
ROCHESTER      CLOUDY    73  61  65 W12       30.09S
6HR MIN TEMP:  61; 6HR MAX TEMP:  75;

RED WING       CLOUDY    79  57  47 W12       30.04S
STANTON        CLOUDY    72  57  60 W12       30.07R
DODGE CENTER   CLOUDY    73  59  60 W9        30.09F
WINONA         PTSUNNY   77  57  50 W6        30.05F
AUSTIN         CLOUDY    72  59  64 W6        30.09F
PRESTON        CLOUDY    73  58  60 W10G17    30.09F
$$
ABBREVIATIONS USED IN REMARKS
   TC - TEMPERATURES IN CELSIUS
  WCI - WIND CHILL INDEX
   HX - HEAT INDEX
  VSB - VISIBILITY
$$



USA.gov is the U.S. government's official web portal to all federal, state and local government web resources and services.